Regional Weather Roundup
Issued by NWS Charleston, SC

Current Version | Previous Version | Graphics & Text | Print | Product List | Glossary On
Versions: 1 2 3 4 5 6 7 8 9 10 11 12 13 14 15 16 17 18 19 20 21 22 23 24 25 26 27 28 29 30 31 32 33 34 35 36 37 38 39 40 41 42 43 44 45 46 47 48 49 50
000 ASUS42 KCHS 050112 RWRCHS REGIONAL WEATHER ROUNDUP NATIONAL WEATHER SERVICE CHARLESTON SC 900 PM EDT SAT JUL 04 2015 NOTE: "FAIR" INDICATES FEW OR NO CLOUDS BELOW 12,000 FEET WITH NO SIGNIFICANT WEATHER AND/OR OBSTRUCTIONS TO VISIBILITY. NOT ALL STATIONS ARE QUALITY CONTROLLED BY THE NATIONAL WEATHER SERVICE. USE DATA WITH CAUTION...ESPECIALLY DEWPOINT OBSERVATIONS. SCZ027-030-031-034>040-042>050-050200- ...SOUTHEAST SOUTH CAROLINA... CITY SKY/WX TMP DP RH WIND PRES REMARKS N CHARLESTON LGT RAIN 73 70 90 SW9 30.08F WATERFRONT PAR N/A 74 71 90 VRB3 30.07S MOUNT PLEASANT LGT RAIN 75 70 83 SW7 30.09F JOHNS ISLAND LGT RAIN 73 72 94 CALM 30.10S PINOPOLIS NOT AVBL MONCKS CORNER RAIN 73 68 83 SW5 30.07F SUMMERVILLE RAIN 72 72 100 SW3 30.10F BEAUFORT MCAS CLOUDY 74 73 97 S3 30.08F BEAUFORT ARPT DRIZZLE 73 72 94 CALM 30.08F HILTON HEAD IS LGT RAIN 73 73 100 CALM 30.09F WALTERBORO LGT RAIN 72 70 94 CALM 30.10F ALLENDALE FAIR 73 70 88 CALM 30.08S ...SOUTHERN MIDLANDS AND PEE DEE... CITY SKY/WX TMP DP RH WIND PRES REMARKS GEORGETOWN NOT AVBL KINGSTREE NOT AVBL ORANGEBURG CLOUDY 76 66 71 S15 30.08R BARNWELL FAIR 75 72 88 S8 30.09R AIKEN NOT AVBL MANNING FAIR 81 66 61 S14G20 30.06R COLUMBIA CLOUDY 83 70 64 S7 30.03R SUMTER MOCLDY 83 71 69 S9 30.03R FLORENCE CLEAR 82 71 69 S8 30.03R MYRTLE BEACH CLEAR 82 73 74 SW18 30.07R N MYRTLE BEACH CLEAR 82 77 84 SW17 30.05R HX 90 $$ GAZ063-065-086>088-099>101-113>116-118-119-134>141-150-050200- ...SOUTHEAST GEORGIA... CITY SKY/WX TMP DP RH WIND PRES REMARKS SAVANNAH ARPT CLOUDY 74 70 87 SE3 30.08F HUNTER AAF CLOUDY 73 73 100 SE3 30.06F FORT STEWART MOCLDY 74 71 89 W3 30.07R STATESBORO NOT AVBL SYLVANIA CLOUDY 73 73 99 CALM 30.10R CLAXTON FAIR 73 73 100 CALM 30.09R ...CSRA...CENTRAL AND FAR SOUTHEAST GEORGIA... CITY SKY/WX TMP DP RH WIND PRES REMARKS THOMSON PTCLDY 80 75 85 CALM 30.11R AUGUSTA-BUSH MOCLDY 78 70 76 S8 30.06R AUGUSTA-DANIEL MOCLDY 81 70 69 S8 30.08R SWAINSBORO FAIR N/A N/A N/A S6 30.10R VIDALIA MOCLDY 75 72 88 S7 30.12R EASTMAN FAIR 76 76 100 S3 30.12R HAZLEHURST FAIR 76 76 100 CALM 30.10R ALMA CLOUDY 75 72 90 CALM 30.10R WAYCROSS CLOUDY 76 75 96 CALM 30.10S JESUP LGT RAIN 77 73 88 SW6 30.11R BAXLEY FAIR 75 73 94 S3 30.10R BRUNSWICK CLOUDY 75 73 94 S5 30.10S SAINT SIMONS LGT RAIN 75 73 93 CALM 30.09F $$ SCZ027-028-034-036>038-045-046-048>050-GAZ119-141-050200- ...LAKE AND SUPPLEMENTAL COASTAL OBSERVATIONS... STATION/POSITION TIME TEMP WIND PRES WAVE SWELL AIR SEA DIR/SP/G HT/PER HT/PER/DIR (UTC) (F) (DEG/KT/KT) (MB) (FT/S) (FT/S/D) UPR LAKE MARION NOT AVBL WINYAH BAY 2345 84 200/ 11 1016.0 LAKE MURRAY 0000 85 250/ 6/ 10 1015.6S ACE BASIN NERRS NOT AVBL FORT PULASKI 0000 74 84 110/ 3/ 4 1019.6F SAPELO ISLAND 0000 77 170/ 3 1019.0F $$ ANZ835-935-AMZ111-154-330-350-352-354-370-450-454-472-050200- ...C-MAN AND BUOY OBSERVATIONS... STATION/POSITION TIME TEMP WIND PRES WAVE SWELL AIR SEA DIR/SP/G HT/PER HT/PER/DIR (UTC) (F) (DEG/KT/KT) (MB) (FT/S) (FT/S/D) BUOY 41004 0050 82 82 230/ 17/ 19 1018.4R 3/ 9 2/ 9 BUOY 41008 0050 78 79 160/ 2/ 4 1018.9F 3/ 9 2/120/ 9 FOLLY BEACH CMAN 0000 79 260/ 15/ 21 1019.9R CAPERS NEARSHORE 0008 82 230/ 21/ 33 1019.5R FRIPP NEARSHORE 0000 76 300/ 10/ 12 1019.5 STATION/POSITION TIME TEMP WIND PRES WAVE SWELL AIR SEA DIR/SP/G HT/PER HT/PER/DIR (UTC) (F) (DEG/KT/KT) (MB) (FT/S) (FT/S/D) 5E ST. MARYS GA 0021 77 N/A 2/ 8 FRYING PAN BUOY 0050 81 79 210/ 14/ 17 1018.6R 4/ 9 2/130/ 9 BUOY 41025 0050 82 81 220/ 21/ 25 1015.9R 6/ 6 2/150/ 9 CAPE LOOKOUT NC 0000 81 210/ 13/ 17 1016.4R BUOY 41002 0050 82 80 220/ 8/ 10 1021.2R 4/ 6 3/250/ 6 BUOY 41010 0020 84 85 150/ 6/ 8 1020.6R ST AUGUSTINE FL 0100 77 73 180/ 5/ 5 1021.3R $$

USA.gov is the U.S. government's official web portal to all federal, state and local government web resources and services.